Temperature
17 17 17 17 17 17 16 16 16 16 16 16 16 16 16 15 15 15 15 15 15 15 15 15 15 15 15 15 15 15 15 15 15 15 15 15 15 15 15 14 14 14 14
17 17 17 17 17 16 16 16 16 16 16 16 16 15 15 15 15 15 15 15 15 15 15 15 15 15 15 15 15 15 15 15 15 15 15 15 15 15 14 14 14 14 14
17 17 17 17 16 16 16 16 16 16 16 16 15 15 15 15 15 15 15 15 15 15 15 15 15 15 15 15 15 15 15 15 14 14 14 14 14 14 14 14 14 14 14
17 17 17 16 16 16 16 16 16 16 15 15 15 15 15 15 15 15 15 15 15 15 14 14 14 14 14 14 14 14 14 14 14 14 14 14 14 14 14 14 13 13 13
17 16 16 16 16 16 16 16 15 15 15 15 15 15 15 15 15 15 15 14 14 14 14 14 14 14 14 14 14 14 14 14 14 13 14 14 14 14 13 13 13 13 13
17 16 16 16 15 15 15 15 15 15 15 15 15 15 15 15 15 15 14 14 14 14 14 14 14 14 14 14 14 14 14 13 13 13 13 13 13 13 13 13 13 13 12
16 16 16 16 15 15 15 15 15 15 15 15 15 15 15 15 15 15 14 14 14 14 14 14 14 13 13 13 13 13 13 13 13 13 13 13 13 13 13 13 13 13 13
16 16 15 15 15 15 15 15 15 15 15 15 14 14 14 14 14 14 14 14 14 14 14 14 14 13 13 13 13 13 13 13 13 13 13 13 13 13 13 13 12 12 12
15 15 15 15 15 15 15 15 15 15 14 14 14 14 14 14 14 14 14 14 13 13 13 13 13 13 13 13 13 13 13 13 13 13 13 13 13 13 12 12 12 12 12
15 15 15 15 14 14 14 14 14 14 14 14 14 14 14 14 14 14 14 13 13 13 13 13 13 13 13 13 13 13 13 13 13 13 13 13 13 13 12 12 12 12 12
15 14 14 14 14 14 14 14 14 14 14 14 14 13 13 13 13 13 13 13 13 13 13 13 13 13 13 12 12 12 12 12 12 12 12 12 12 12 12 12 12 12 12
14 14 14 14 14 14 14 13 13 13 13 13 13 13 13 13 13 13 13 13 13 12 12 12 12 12 12 12 12 12 12 12 12 12 12 12 12 12 12 12 12 12 12
14 14 14 13 13 13 13 13 13 13 13 13 13 13 13 13 13 13 13 13 12 12 12 12 12 12 12 12 12 12 12 12 12 12 12 12 12 12 12 12 12 11 11
13 13 13 13 13 13 13 13 13 13 13 13 13 13 13 12 12 13 12 12 12 12 12 12 12 12 12 12 12 12 12 12 11 11 11 11 11 11 11 11 11 11 11
13 13 13 13 13 13 13 13 13 13 13 13 13 13 13 12 12 12 12 12 12 12 11 11 11 11 11 12 12 12 11 11 11 11 11 11 11 11 11 11 11 11 10
12 12 12 12 12 12 12 12 12 12 12 12 12 12 12 12 12 12 12 12 11 11 11 11 11 11 11 11 11 11 11 11 11 11 11 11 11 10 10 10 10 10 10
12 12 12 12 12 12 12 12 12 12 12 12 12 12 12 11 11 11 11 11 11 11 11 11 11 11 11 11 11 11 11 11 11 11 10 10 10 10 10 10 10 10 10
12 12 12 12 12 12 12 12 12 12 12 11 11 11 11 11 11 11 11 11 11 11 11 11 11 11 11 11 10 10 10 10 10 10 10 10 10 10 10 10 9 9 9
12 12 12 12 12 12 12 12 12 11 11 11 11 11 11 11 11 10 10 10 10 10 10 10 10 10 10 10 10 10 10 10 10 10 10 9 9 9 9 9 9 9 9
12 12 12 12 12 12 12 12 12 11 11 11 11 11 11 10 10 10 10 10 10 10 10 10 10 10 10 10 10 9 9 9 9 9 9 9 9 9 9 9 9 9 9
11 12 11 11 11 11 11 11 11 11 11 11 11 11 11 10 10 10 10 10 10 10 10 10 10 10 9 9 9 9 9 9 9 9 8 8 8 8 9 9 9 9 9
11 11 11 11 11 11 11 11 11 11 11 11 11 10 10 10 10 10 10 10 10 10 9 9 9 9 9 9 9 9 9 8 8 8 8 8 8 8 8 8 9 8 8
11 11 11 11 11 11 11 11 11 11 11 10 10 10 10 10 10 10 9 9 9 9 9 9 9 9 9 8 8 8 8 8 8 8 8 8 8 8 8 8 8 8 8
10 10 10 10 10 10 10 10 10 10 10 10 10 10 10 10 10 9 9 9 9 9 9 9 9 9 8 8 8 8 8 8 8 8 8 8 8 8 8 8 8 8 8
10 10 10 10 10 10 10 10 10 10 10 10 10 10 9 9 9 9 9 9 9 9 8 8 8 8 8 8 8 8 8 7 7 7 7 7 7 7 7 7 7 7 7
10 10 9 9 9 9 9 9 9 9 9 9 9 9 9 9 9 9 9 8 8 8 8 8 8 7 7 7 7 7 7 7 7 7 7 7 7 7 7 7 7 7 7
Wind_Speed
7 6 5 5 5 5 5 4 4 4 4 4 4 3 3 3 3 3 3 3 3 2 2 2 2 2 2 2 1 1 1 1 1 1 1 0 1 1 2 3 5 6 7
6 6 6 5 5 5 5 4 4 4 4 3 4 4 4 4 4 4 4 3 3 3 2 2 2 2 2 2 2 2 1 1 2 2 2 1 2 2 2 3 4 4 4
7 7 6 6 6 6 5 4 4 4 3 3 3 3 3 3 3 3 3 3 3 2 2 2 2 2 2 2 2 2 2 2 1 2 3 2 2 2 2 3 3 3 4
7 7 7 6 5 5 5 5 4 4 4 3 2 2 3 2 2 2 2 3 2 2 2 2 2 2 2 3 2 2 2 2 2 2 2 2 2 2 2 2 2 3 3
7 6 6 5 5 5 5 5 4 4 4 3 2 2 2 2 1 1 2 3 2 2 2 2 1 1 1 2 2 2 2 2 3 2 3 2 2 1 2 2 2 2 2
6 5 5 5 5 5 5 5 4 4 3 3 3 2 1 1 1 1 1 2 2 3 3 2 2 2 2 4 3 2 2 3 3 3 3 3 3 2 2 2 2 2 3
5 5 5 5 5 4 4 4 4 3 3 2 2 2 2 1 2 1 1 2 3 3 2 2 3 2 2 2 3 4 3 4 4 3 4 3 3 3 2 3 3 3 4
4 4 4 4 4 3 3 3 3 2 2 2 2 2 2 2 2 1 1 2 4 4 3 3 2 2 3 3 3 3 3 3 4 4 3 3 3 3 2 3 4 4 4
3 3 4 4 3 3 3 3 2 2 2 2 2 3 2 2 2 3 2 3 4 4 4 3 3 3 2 3 4 3 3 3 4 4 4 4 5 5 4 2 2 3 4
2 3 2 3 3 3 3 3 2 2 2 3 2 2 2 2 3 3 3 3 3 3 3 3 2 3 3 3 3 4 4 4 3 4 4 6 6 6 6 4 3 4 3
2 2 2 2 3 3 3 2 3 3 2 2 2 2 2 3 4 4 4 3 3 3 3 2 1 3 3 3 4 4 5 5 4 4 4 4 3 3 3 4 4 3 3
2 2 2 2 3 3 3 3 3 3 3 4 4 4 3 3 4 5 6 6 4 3 2 1 1 3 3 4 4 5 6 6 4 4 4 3 3 2 2 3 4 4 4
2 2 2 2 2 2 4 4 4 4 4 4 5 5 4 3 3 5 5 5 5 3 2 3 3 5 5 5 6 7 5 4 4 4 4 3 3 2 2 2 2 3 3
2 2 3 3 3 3 3 4 4 4 4 4 4 4 2 2 1 1 2 3 4 4 3 3 4 7 7 6 5 5 5 4 4 4 3 3 2 2 2 2 2 2 2
3 3 3 4 4 3 2 2 2 1 1 2 1 2 2 2 0 1 0 1 2 2 3 3 3 3 3 3 3 3 3 3 3 3 3 3 2 1 2 1 1 2 2
3 3 4 4 4 4 3 2 1 1 2 2 1 1 0 2 3 2 0 1 2 2 2 4 3 3 3 3 2 2 2 2 2 2 3 2 2 2 2 1 2 2 2
3 3 4 4 4 4 4 4 3 1 1 1 1 2 2 3 3 3 3 3 4 2 3 4 4 3 3 2 2 2 2 1 1 1 1 2 1 2 2 1 2 1 2
4 4 4 3 3 4 4 4 4 4 3 3 3 5 5 5 5 5 3 1 3 4 4 4 3 3 2 1 1 2 1 1 1 1 1 1 1 2 2 2 2 2 2
4 3 3 3 4 4 3 4 4 3 3 3 3 3 6 5 4 5 4 3 4 4 3 3 2 1 1 1 1 1 1 1 1 1 1 1 1 2 2 3 3 3 3
4 4 4 4 4 3 3 4 3 3 3 2 2 3 4 4 3 4 5 5 4 3 2 1 1 1 1 1 0 0 0 0 0 1 1 1 2 2 3 3 3 3 3
4 3 4 4 4 4 3 3 3 3 3 2 2 3 5 5 5 5 5 5 4 4 2 2 1 1 1 0 0 1 1 1 1 2 2 2 2 2 3 3 3 3 2
3 2 2 3 3 2 2 3 3 3 4 3 2 2 4 3 3 3 2 2 3 2 2 1 1 0 1 1 1 1 1 1 2 2 2 3 2 3 3 2 2 2 2
3 2 2 2 2 2 3 3 3 3 3 2 1 1 2 2 2 1 1 1 1 1 1 1 1 1 2 2 2 2 2 3 3 3 3 4 3 3 3 3 3 3 3
2 2 2 2 2 2 3 4 3 2 2 1 1 1 2 2 1 1 1 1 2 2 2 2 2 3 4 4 5 6 6 5 5 4 5 5 5 3 3 3 4 4 3
1 1 1 1 1 2 2 2 1 1 1 1 1 1 0 1 1 1 1 1 2 2 2 3 3 4 6 7 6 6 7 8 8 7 6 5 5 4 4 4 3 4 3
1 1 1 1 1 1 2 2 1 1 1 1 1 1 1 1 1 1 1 2 2 2 2 2 4 4 5 5 6 6 7 8 9 9 7 5 5 4 4 3 4 3 3
Wind_Direction
174 176 175 168 170 171 174 170 163 158 164 171 176 181 187 191 192 213 233 217 217 221 238 233 244 266 282 277 270 271 269 226 233 256 258 249 179 220 187 206 218 204 205
164 164 160 154 161 166 167 161 156 161 170 177 182 187 200 201 199 214 236 226 228 226 226 228 240 248 267 292 304 301 285 258 219 253 259 249 247 221 216 230 232 223 208
155 153 155 161 165 166 162 159 161 168 174 184 191 193 206 209 206 219 235 230 234 230 222 218 243 254 259 274 275 278 276 276 249 246 252 239 244 227 234 240 234 228 236
149 154 155 162 164 164 162 165 171 170 175 179 184 196 206 212 211 230 251 241 242 244 238 226 230 243 259 265 265 282 280 288 273 261 256 250 247 236 228 242 256 249 247
149 156 157 159 160 166 168 171 174 175 178 173 180 200 213 212 209 202 266 249 247 260 257 242 238 233 237 251 258 291 288 278 281 275 272 273 275 262 251 250 263 269 271
139 146 151 154 158 166 169 168 168 172 167 171 183 186 197 231 97 101 280 280 266 261 264 258 242 227 233 223 232 257 271 265 278 276 277 273 282 284 278 272 275 276 278
143 143 147 146 154 166 171 160 164 164 158 152 163 165 157 162 137 134 306 295 280 269 268 265 266 260 270 251 227 231 251 266 258 262 275 281 285 289 282 275 277 275 270
130 131 134 135 138 138 135 140 143 157 167 168 182 181 177 184 145 168 263 262 267 257 247 240 239 243 268 283 268 245 241 261 263 257 255 263 272 282 271 260 264 271 267
134 138 139 137 145 152 146 144 143 154 171 183 191 194 189 184 192 195 222 260 257 256 250 244 226 223 242 269 274 266 260 263 266 264 256 255 260 266 267 269 263 262 279
144 146 143 144 158 162 161 167 164 174 188 188 185 193 190 188 207 199 203 248 261 261 249 234 207 205 204 238 254 269 266 274 286 287 273 264 250 243 234 223 239 255 270
144 141 152 161 169 170 169 176 183 208 200 194 202 201 196 191 197 200 199 234 262 269 263 248 197 169 192 234 251 262 261 278 281 274 269 261 244 231 222 212 215 237 259
161 159 159 181 203 184 170 191 202 215 211 212 219 219 210 197 192 202 204 223 251 275 281 280 246 207 231 250 256 262 270 273 261 262 262 259 254 236 231 218 218 221 230
174 176 175 194 207 192 197 203 208 214 226 225 219 226 215 198 186 194 202 222 238 250 279 292 276 245 243 247 244 254 263 261 258 259 264 265 255 247 241 222 211 217 234
194 197 195 197 203 201 210 215 213 221 230 230 225 233 222 198 187 193 207 227 240 249 268 281 270 253 242 244 246 242 239 251 262 268 274 274 268 252 247 245 233 223 247
208 209 212 208 198 192 211 252 237 250 249 233 255 265 254 223 168 99 8 257 258 271 276 256 251 253 240 233 226 226 233 243 250 262 272 279 279 275 272 268 249 250 250
219 216 221 214 201 203 205 218 29 186 154 147 139 176 145 141 158 139 156 284 280 283 267 260 256 251 252 258 260 257 242 244 265 267 267 271 271 273 278 286 274 259 269
229 229 232 226 212 212 212 212 213 232 220 187 192 194 188 187 192 201 230 269 267 227 230 246 246 248 252 264 275 279 277 248 242 260 270 277 281 285 280 280 282 282 289
233 233 235 237 234 226 220 224 223 216 213 226 230 214 206 206 209 218 217 234 249 220 230 238 243 242 237 254 271 283 296 323 313 273 280 291 292 289 286 278 274 274 278
244 243 238 243 247 249 245 237 232 227 229 219 201 204 206 206 216 225 203 224 240 240 229 230 244 247 251 250 252 261 281 303 343 324 312 310 285 281 281 280 277 280 277
238 230 235 247 249 251 251 249 245 239 241 229 212 204 181 188 209 208 207 229 237 243 246 247 258 263 270 277 286 282 271 302 336 301 286 283 282 275 275 275 273 271 270
258 240 220 240 242 238 246 254 259 257 244 229 226 207 182 196 210 213 208 209 218 224 226 231 230 241 285 324 348 327 12 21 6 347 328 303 295 289 278 273 275 281 287
273 264 241 243 258 259 253 246 245 249 249 241 232 201 180 208 220 215 201 190 202 208 203 207 211 56 32 38 25 6 20 17 6 335 313 306 298 296 296 293 301 303 304
249 251 251 255 261 267 270 265 258 251 245 236 217 188 189 225 227 203 176 143 136 123 126 116 75 72 65 56 43 41 42 25 359 337 318 306 298 299 303 298 289 293 298
257 258 257 259 264 264 261 261 254 236 228 248 237 216 206 211 213 161 126 103 99 100 89 72 60 55 61 55 53 53 41 26 6 349 337 324 317 321 324 316 305 299 295
245 253 265 286 288 284 280 279 285 261 225 224 224 225 163 144 128 110 100 102 102 101 100 94 88 72 65 58 57 50 30 22 11 356 339 322 312 315 318 315 316 312 316
254 259 246 261 258 267 269 266 254 258 251 233 209 166 182 178 171 152 154 141 128 119 114 106 100 91 80 70 63 53 38 23 6 353 341 321 310 314 322 317 323 325 323
Height
1498 1500 1502 1503 1505 1507 1508 1511 1513 1515 1516 1518 1519 1520 1521 1522 1523 1524 1525 1526 1527 1527 1528 1528 1528 1529 1529 1529 1530 1530 1530 1530 1529 1529 1530 1530 1529 1528 1528 1527 1527 1526 1526
1495 1497 1499 1501 1503 1505 1507 1509 1511 1513 1515 1516 1517 1518 1519 1520 1521 1522 1523 1524 1525 1525 1526 1526 1526 1527 1527 1527 1527 1528 1528 1528 1528 1527 1527 1527 1527 1526 1526 1525 1524 1524 1524
1494 1496 1497 1499 1501 1503 1505 1507 1509 1511 1513 1514 1515 1516 1518 1518 1519 1520 1521 1522 1522 1523 1523 1523 1524 1524 1524 1525 1525 1525 1525 1526 1526 1525 1525 1525 1525 1524 1524 1523 1523 1522 1522
1492 1494 1496 1498 1500 1502 1504 1505 1507 1509 1511 1512 1513 1514 1515 1516 1517 1518 1518 1519 1520 1520 1521 1521 1522 1522 1522 1522 1523 1523 1523 1523 1523 1523 1523 1523 1523 1522 1522 1521 1520 1520 1519
1491 1493 1494 1496 1499 1501 1503 1504 1506 1508 1509 1510 1512 1513 1514 1514 1515 1515 1516 1517 1518 1518 1519 1519 1519 1520 1520 1520 1520 1520 1521 1521 1521 1521 1520 1520 1520 1519 1519 1518 1518 1517 1517
1490 1492 1494 1495 1497 1500 1501 1503 1504 1506 1507 1509 1510 1511 1512 1512 1513 1514 1514 1515 1515 1516 1516 1516 1517 1517 1517 1517 1518 1518 1519 1518 1518 1518 1518 1518 1517 1517 1516 1516 1515 1515 1514
1489 1491 1493 1495 1496 1498 1500 1502 1503 1504 1505 1506 1508 1508 1509 1510 1511 1511 1512 1512 1513 1513 1513 1514 1514 1514 1515 1515 1515 1515 1516 1516 1516 1516 1515 1515 1514 1514 1513 1513 1512 1512 1511
1488 1490 1492 1494 1496 1497 1498 1500 1501 1502 1504 1504 1505 1506 1507 1508 1508 1509 1509 1510 1510 1510 1510 1511 1511 1511 1512 1512 1512 1512 1512 1512 1512 1512 1512 1512 1511 1511 1510 1510 1509 1508 1508
1488 1490 1491 1492 1494 1496 1497 1498 1499 1500 1501 1502 1503 1504 1504 1505 1506 1506 1507 1506 1507 1507 1508 1508 1508 1508 1508 1509 1509 1509 1509 1509 1509 1509 1509 1508 1508 1507 1507 1506 1505 1505 1504
1487 1488 1490 1491 1493 1494 1495 1496 1497 1498 1499 1500 1501 1502 1502 1502 1503 1503 1504 1504 1504 1504 1505 1505 1505 1505 1505 1505 1506 1506 1506 1506 1506 1505 1505 1505 1504 1504 1503 1503 1503 1502 1502
1486 1487 1488 1490 1491 1492 1493 1494 1495 1496 1497 1498 1498 1499 1499 1499 1500 1500 1501 1501 1501 1501 1502 1502 1502 1502 1502 1502 1503 1503 1503 1503 1503 1502 1502 1501 1501 1500 1500 1500 1500 1499 1499
1484 1485 1486 1487 1489 1490 1490 1492 1493 1494 1494 1495 1496 1496 1496 1496 1497 1497 1497 1498 1498 1498 1498 1499 1499 1499 1499 1499 1500 1500 1500 1500 1500 1499 1498 1498 1497 1497 1497 1497 1496 1496 1495
1482 1483 1484 1485 1486 1487 1488 1489 1490 1491 1492 1492 1493 1493 1493 1493 1494 1494 1494 1494 1495 1495 1496 1496 1496 1496 1496 1496 1496 1497 1497 1496 1496 1496 1495 1495 1495 1494 1494 1494 1493 1492 1492
1479 1480 1481 1483 1484 1485 1486 1487 1488 1488 1489 1490 1490 1491 1491 1491 1491 1491 1491 1492 1492 1492 1492 1493 1493 1493 1493 1493 1493 1493 1493 1493 1493 1493 1492 1492 1491 1491 1491 1490 1489 1489 1488
1477 1478 1479 1480 1481 1482 1483 1484 1484 1485 1486 1487 1487 1488 1488 1488 1488 1488 1488 1489 1489 1489 1489 1490 1490 1490 1490 1490 1490 1490 1490 1490 1490 1490 1489 1489 1488 1488 1487 1487 1486 1486 1485
1475 1476 1477 1478 1479 1480 1480 1481 1481 1482 1483 1484 1484 1485 1484 1485 1485 1485 1485 1486 1486 1486 1486 1486 1487 1487 1487 1487 1487 1488 1488 1487 1487 1486 1486 1486 1485 1485 1484 1483 1483 1482 1481
1473 1474 1475 1476 1477 1477 1478 1478 1479 1479 1480 1480 1481 1481 1481 1481 1481 1482 1482 1482 1483 1483 1483 1483 1483 1484 1484 1484 1484 1485 1485 1485 1484 1483 1483 1483 1482 1482 1481 1481 1480 1479 1479
1471 1472 1473 1474 1474 1475 1475 1476 1476 1476 1476 1476 1477 1477 1477 1478 1478 1478 1478 1479 1479 1479 1479 1479 1480 1480 1481 1481 1481 1482 1482 1481 1481 1480 1480 1480 1479 1479 1479 1478 1477 1477 1476
1469 1470 1470 1471 1472 1472 1473 1473 1473 1473 1473 1473 1473 1473 1474 1474 1474 1474 1475 1475 1475 1475 1475 1476 1476 1477 1477 1478 1478 1478 1478 1478 1478 1477 1477 1477 1476 1476 1476 1475 1475 1474 1474
1467 1467 1468 1469 1469 1469 1470 1470 1471 1471 1470 1470 1470 1470 1470 1470 1470 1471 1471 1472 1472 1472 1473 1473 1474 1474 1475 1475 1475 1475 1475 1476 1475 1475 1474 1474 1474 1474 1473 1473 1472 1472 1471
1464 1464 1465 1465 1466 1466 1467 1468 1468 1468 1467 1467 1467 1467 1467 1466 1467 1468 1468 1469 1469 1469 1470 1471 1472 1472 1472 1472 1472 1472 1473 1472 1472 1472 1472 1472 1471 1471 1471 1471 1470 1469 1469
1462 1462 1462 1462 1463 1463 1464 1464 1465 1465 1464 1464 1464 1464 1464 1464 1465 1465 1466 1466 1467 1467 1467 1469 1469 1470 1470 1470 1470 1470 1470 1470 1469 1469 1469 1469 1469 1468 1468 1468 1467 1467 1466
1459 1459 1460 1460 1460 1460 1461 1461 1462 1462 1462 1462 1462 1462 1462 1462 1463 1463 1463 1464 1464 1465 1466 1467 1468 1468 1468 1468 1468 1468 1468 1467 1467 1467 1466 1466 1466 1466 1466 1465 1465 1464 1463
1457 1457 1457 1458 1458 1458 1459 1459 1459 1459 1459 1460 1460 1460 1460 1460 1461 1461 1462 1462 1463 1463 1464 1464 1465 1466 1466 1466 1466 1465 1465 1465 1464 1464 1463 1463 1462 1462 1462 1462 1461 1461 1460
1455 1455 1456 1456 1456 1456 1456 1456 1456 1457 1457 1457 1458 1458 1458 1458 1459 1459 1460 1461 1461 1462 1462 1463 1463 1463 1463 1463 1463 1463 1463 1462 1462 1461 1460 1460 1459 1459 1459 1459 1458 1458 1457
1454 1454 1454 1454 1454 1454 1454 1454 1454 1454 1454 1455 1455 1456 1456 1457 1458 1458 1458 1459 1460 1460 1461 1461 1462 1462 1461 1461 1460 1460 1460 1460 1459 1458 1458 1457 1456 1456 1456 1455 1455 1455 1454